LUCH 5V (39727 NORAD) Tracking and Keplerian Element Data

This shows tracking and keplerian element data for the satellite.

Feedback or suggestion? Click here.




ElementValue
Catalog39727
NameLUCH 5V
Epoch Orbit53353
Epoch Day198.93302586
Epoch Year2018
RAAN299.475
Inclination1.9128
Eccentricity0.000238
Argument of Perigee180.4966
Mean Anonmoly246.352
Mean Motion1.00270151
Decay Rate-2.87E-06
L11 39727U 14023A 18198.93302586 -.00000287 00000-0 00000-0 0 9999
L22 39727 1.9128 299.4750 0002380 180.4966 246.3520 1.00270151533532

Live tracking and technical data element details for LUCH 5V (NORAD 39727). LUCH 5V can be tracked NOW for your location showing map with azimuth and elevation plus other details from your city location.

Track the satellite on the map from your city or location and see movement details for azimuth, elevation, latitude, longitude, range, height, and movement on the map or in text.







IsCatalogInMostPopularTable: catalog: 39727, numindb: 53
Update: records affected: 1



GetName: 39727 LUCH 5V

Hit Count: updated at: Thu, 19 Jul 2018 21:21:54 GMT